Weather History for KSJT - April, 2013

Change the Weather History Date:

Thursday, April 18, 2013

  Actual Average Record
Temperature  
Mean Temperature 61 °F 67 °F  
Max Temperature 76 °F 81 °F 105 °F (1925)
Min Temperature 46 °F 52 °F 28 °F (1947)
Degree Days  
Heating Degree Days 4 3  
Month to date heating degree days 63 69  
Since 1 July heating degree days 1852 2287  
Cooling Degree Days 0 4  
Month to date cooling degree days 117 55  
Year to date cooling degree days 192 93  
Growing Degree Days 6 (Base 50)    
Moisture  
Dew Point 42 °F    
Average Humidity 49    
Maximum Humidity 79    
Minimum Humidity 19    
Precipitation  
Precipitation 0.27 in 0.05 in 2.22 in (1908)
Month to date precipitation 0.98 0.78  
Year to date precipitation 2.81 4.56  
Snow  
Snow 0.00 in 0.00 in 0.00 in (2002)
Month to date snowfall T 0.0  
Since 1 July snowfall 2.8 2.2  
Snow Depth 0.00 in    
Sea Level Pressure  
Sea Level Pressure 29.87 in    
Wind  
Wind Speed 16 mph (NNW)    
Max Wind Speed 46 mph    
Max Gust Speed 54 mph    
Visibility 9 miles    
Events Rain , Thunderstorm    
T = Trace of Precipitation, MM = Missing Value Source: NWS Daily Summary

Daily Weather History Graph

Daily Weather History Graph

Search for Another Location

Airport or City:

Trip Planner

Search our weather history database for the weather conditions in past years. The results will help you decide how hot, cold, wet, or windy it might be!

Date:

Astronomy

Apr. 18, 2013 Rise Set
Actual Time 7:10 AM CDT 8:12 PM CDT
Civil Twilight 6:45 AM CDT 8:37 PM CDT
Nautical Twilight 6:15 AM CDT 9:07 PM CDT
Astronomical Twilight 5:44 AM CDT 9:38 PM CDT
Moon 1:27 PM CDT (4/18) 2:23 AM CDT (4/18)
Length of Visible Light 13h 52m
Length of Day
13h 02m
First Quarter, 52% of the Moon is Illuminated
Apr 18
First Quarter
Apr 25
Full
May 2
Last Quarter
May 9
New
May 17
First Quarter

Hourly Weather History & Observations

Time (CDT) Temp. Dew Point Humidity Pressure Visibility Wind Dir Wind Speed Gust Speed Precip Events Conditions
12:51 AM 75.9 °F 66.9 °F 74% 29.54 in 9.0 mi South 21.9 mph 32.2 mph N/A   Clear
1:51 AM 75.0 °F 68.0 °F 79% 29.56 in 8.0 mi SSW 16.1 mph 25.3 mph N/A   Clear
2:04 AM 75.2 °F 68.0 °F 78% 29.66 in 9.0 mi West 18.4 mph 25.3 mph 0.01 in   Scattered Clouds
2:11 AM 75.2 °F 66.2 °F 73% 29.67 in 9.0 mi WSW 19.6 mph - 0.01 in   Mostly Cloudy
2:18 AM 73.4 °F 60.8 °F 65% 29.69 in 6.0 mi NNW 46.0 mph 54.1 mph 0.01 in Thunderstorm Haze
2:25 AM 60.8 °F 51.8 °F 72% 29.73 in 5.0 mi NW 33.4 mph 54.1 mph 0.01 in Rain , Thunderstorm Light Thunderstorms and Rain
2:32 AM 57.2 °F 53.6 °F 88% 29.67 in 2.5 mi NNW 32.2 mph 46.0 mph 0.05 in Rain , Thunderstorm Heavy Thunderstorms and Rain
2:41 AM 59.0 °F 53.6 °F 82% 29.73 in 1.8 mi NNW 21.9 mph 36.8 mph 0.23 in Rain , Thunderstorm Heavy Thunderstorms and Rain
2:45 AM 60.8 °F 53.6 °F 77% 29.74 in 3.0 mi NNW 21.9 mph 29.9 mph 0.27 in Rain , Thunderstorm Thunderstorms and Rain
2:51 AM 60.1 °F 53.1 °F 78% 29.67 in 9.0 mi North 21.9 mph 31.1 mph 0.27 in Rain , Thunderstorm Light Thunderstorms and Rain
3:15 AM 60.8 °F 53.6 °F 77% 29.75 in 10.0 mi NW 17.3 mph 24.2 mph 0.00 in   Overcast
3:51 AM 57.9 °F 51.1 °F 78% 29.75 in 10.0 mi NW 9.2 mph - 0.00 in   Overcast
4:51 AM 54.0 °F 46.0 °F 75% 29.76 in 10.0 mi NW 20.7 mph 27.6 mph 0.00 in   Scattered Clouds
5:51 AM 51.1 °F 42.1 °F 71% 29.84 in 10.0 mi North 12.7 mph - 0.00 in   Scattered Clouds
6:51 AM 48.9 °F 39.0 °F 69% 29.88 in 10.0 mi North 20.7 mph 24.2 mph N/A   Mostly Cloudy
7:51 AM 46.9 °F 36.0 °F 66% 29.94 in 10.0 mi North 19.6 mph 24.2 mph N/A   Mostly Cloudy
8:51 AM 46.9 °F 35.1 °F 63% 29.97 in 10.0 mi North 15.0 mph 25.3 mph N/A   Mostly Cloudy
9:51 AM 48.9 °F 36.0 °F 61% 29.99 in 10.0 mi North 17.3 mph - N/A   Clear
11:51 AM 54.0 °F 35.1 °F 49% 30.00 in 10.0 mi NNW 17.3 mph 25.3 mph N/A   Clear
12:51 PM 57.9 °F 34.0 °F 41% 29.97 in 10.0 mi North 16.1 mph - N/A   Clear
1:51 PM 61.0 °F 32.0 °F 34% 29.96 in 10.0 mi North 15.0 mph - N/A   Clear
2:51 PM 64.0 °F 30.0 °F 28% 29.97 in 10.0 mi NNW 15.0 mph 25.3 mph N/A   Clear
3:51 PM 64.0 °F 27.0 °F 25% 29.96 in 10.0 mi NNW 18.4 mph 24.2 mph N/A   Clear
4:51 PM 64.9 °F 26.1 °F 23% 29.96 in 10.0 mi North 17.3 mph 25.3 mph N/A   Clear
5:51 PM 66.0 °F 24.1 °F 20% 29.97 in 10.0 mi North 18.4 mph 23.0 mph N/A   Clear
6:51 PM 64.0 °F 21.0 °F 19% 30.01 in 10.0 mi NNW 18.4 mph 24.2 mph N/A   Clear
7:51 PM 61.0 °F 21.9 °F 22% 30.04 in 10.0 mi North 18.4 mph - N/A   Clear
8:51 PM 57.9 °F 25.0 °F 28% 30.07 in 10.0 mi NNE 13.8 mph - N/A   Clear
9:51 PM 54.0 °F 27.0 °F 35% 30.11 in 10.0 mi NE 12.7 mph - N/A   Clear
10:51 PM 50.0 °F 30.0 °F 46% 30.15 in 10.0 mi ENE 9.2 mph - N/A   Clear
11:51 PM 48.0 °F 30.0 °F 50% 30.17 in 10.0 mi NE 6.9 mph - N/A   Clear